Location: Most
(50.5330°N, 13.6500°E)
Time: 04:53:58
(UTC+02:00)

ISS - Pass Details

Date: 23 May 2021
Orbit: 417 x 422 km, 51.6° (Epoch: 13 June)

Event Time Altitude Azimuth Distance (km) Brightness Sun altitude
Rises 00:33:56 0° 286° (WNW) 2,370 0.4 -18.6°
Reaches altitude 10° 00:36:07 10° 278° (W) 1,504 -0.8 -18.7°
Enters shadow 00:38:13 29° 251° (WSW) 802 -2.5 -18.7°
